Columbia County, Pennsylvania, United States
Lat: 41.04N, Lon: 76.43W
Wx Zone: PAZ053
Local Info
Past Weather Observations for Wednesday, July 29, 2015

NOTE: This archive is for the closest National Weather Service station to Columbia County. Information may differ from the station used for current weather conditions.

Click here for Long-term Archive

Time Weather Temperature Dewpoint Humidity Pressure Winds Precip Visibility
23:53
Clear
73°F / 23°C 72°F / 22°C 94% 29.95 in
(1014 mb)
Calm - 7SM
22:53
Clear
77°F / 25°C 73°F / 23°C 89% 29.95 in
(1014 mb)
SSE 3.5 mph
(SSE 6 kph)
- 10SM
21:53
Partly Cloudy
Fog And Mist
73°F / 23°C 72°F / 22°C 94% 29.95 in
(1014 mb)
Calm - 6SM
20:53
Clear
Fog And Mist
75°F / 24°C 73°F / 23°C 94% 29.95 in
(1014 mb)
Calm - 5SM
19:53
Clear
Fog And Mist
75°F / 24°C 73°F / 23°C 94% 29.92 in
(1013 mb)
Calm - 6SM
18:53
Clear
82°F / 28°C 73°F / 23°C 74% 29.95 in
(1014 mb)
Calm - 8SM
17:53
Clear
84°F / 29°C 72°F / 22°C 66% 29.92 in
(1013 mb)
Variable 3.5 mph
(Variable 6 kph)
- 9SM
16:53
Clear
88°F / 31°C 70°F / 21°C 55% 29.95 in
(1014 mb)
Variable 3.5 mph
(Variable 6 kph)
- 9SM
15:53
Clear
90°F / 32°C 70°F / 21°C 52% 29.95 in
(1014 mb)
Variable 3.5 mph
(Variable 6 kph)
- 9SM
14:53
Clear
90°F / 32°C 70°F / 21°C 52% 29.98 in
(1015 mb)
SW 5.8 mph
(SW 9 kph)
- 9SM
13:53
Clear
88°F / 31°C 68°F / 20°C 52% 29.98 in
(1015 mb)
Calm - 9SM
12:53
Clear
88°F / 31°C 68°F / 20°C 52% 30.01 in
(1016 mb)
SW 4.6 mph
(SW 7 kph)
- 9SM
11:53
Clear
86°F / 30°C 72°F / 22°C 62% 30.01 in
(1016 mb)
SSE 3.5 mph
(SSE 6 kph)
- 9SM
10:53
Clear
86°F / 30°C 70°F / 21°C 59% 30.04 in
(1017 mb)
Calm - 10SM
09:53
Clear
82°F / 28°C 68°F / 20°C 62% 30.04 in
(1017 mb)
Calm - 10SM
08:53
Clear
79°F / 26°C 68°F / 20°C 70% 30.04 in
(1017 mb)
Variable 3.5 mph
(Variable 6 kph)
- 10SM
07:53
Clear
73°F / 23°C 66°F / 19°C 78% 30.04 in
(1017 mb)
Calm - 8SM
06:53
Partly Cloudy
Fog And Mist
70°F / 21°C 66°F / 19°C 88% 30.04 in
(1017 mb)
Variable 3.5 mph
(Variable 6 kph)
- 5SM
06:40
Partly Cloudy
Fog And Mist
68°F / 20°C 66°F / 19°C 94% 30.04 in
(1017 mb)
NW 3.5 mph
(NW 6 kph)
- 2 1/2SM
06:28
Overcast
Fog And Mist
66°F / 19°C 66°F / 19°C 100% 30.04 in
(1017 mb)
NW 3.5 mph
(NW 6 kph)
- 1 3/4SM
05:53
Overcast
Fog And Mist
66°F / 19°C 64°F / 18°C 94% 30.04 in
(1017 mb)
Calm - 4SM
04:53
Mostly Cloudy
Fog And Mist
64°F / 18°C 63°F / 17°C 94% 30.04 in
(1017 mb)
Calm - 4SM
04:44
Partly Cloudy
Fog And Mist
63°F / 17°C 63°F / 17°C 100% 30.04 in
(1017 mb)
Calm - 4SM
03:53
Clear
Fog And Mist
64°F / 18°C 63°F / 17°C 94% 30.01 in
(1016 mb)
Calm - 4SM
02:53
Clear
Fog And Mist
64°F / 18°C 63°F / 17°C 94% 30.01 in
(1016 mb)
Calm - 4SM
01:53
Clear
Fog And Mist
64°F / 18°C 63°F / 17°C 94% 30.04 in
(1017 mb)
Calm - 5SM
00:53
Clear
Fog And Mist
64°F / 18°C 63°F / 17°C 94% 30.04 in
(1017 mb)
Calm - 5SM
Time Weather Temperature Dewpoint Humidity Pressure Winds Precip Visibility


Weather for websites

WeatherForYou.com, LLC is not responsible for any damages or problems caused by this service. Current weather conditions are obtained from the closest station including government and personal stations which may have varying degrees of accuracy. Weather forecasts are derived from the NOAA NDFD. Like all things, this site belongs to Jesus Christ... He just trusts us to maintain it. If you have any questions or comments email webmaster@weatherforyou.com

Copyright © 2015, WeatherForYou.com LLC. All rights reserved.